TimeCST,TemperatureF,Dew PointF,Humidity,Sea Level PressureIn,VisibilityMPH,Wind Direction,Wind SpeedMPH,Gust SpeedMPH,PrecipitationIn,Events,Conditions,WindDirDegrees,DateUTC
12:15 AM,37.4,35.6,93,30.26,10.0,Calm,Calm,-,N/A,,Clear,0,2013-01-20 06:15:00
12:35 AM,35.6,33.8,93,30.26,9.0,SSE,5.8,-,N/A,,Clear,160,2013-01-20 06:35:00
12:55 AM,35.6,33.8,93,30.26,10.0,Calm,Calm,-,N/A,,Clear,0,2013-01-20 06:55:00
1:15 AM,35.6,35.6,100,30.26,10.0,Calm,Calm,-,N/A,,Clear,0,2013-01-20 07:15:00
1:35 AM,35.6,33.8,93,30.26,10.0,Calm,Calm,-,N/A,,Clear,0,2013-01-20 07:35:00
1:55 AM,35.6,33.8,93,30.26,10.0,Calm,Calm,-,N/A,,Clear,0,2013-01-20 07:55:00
2:15 AM,33.8,33.8,100,30.26,10.0,SSE,3.5,-,N/A,,Clear,160,2013-01-20 08:15:00
2:35 AM,33.8,33.8,100,30.26,10.0,South,3.5,-,N/A,,Clear,170,2013-01-20 08:35:00
2:55 AM,33.8,33.8,100,30.25,10.0,Calm,Calm,-,N/A,,Clear,0,2013-01-20 08:55:00
3:15 AM,33.8,33.8,100,30.26,10.0,Calm,Calm,-,N/A,,Clear,0,2013-01-20 09:15:00
3:35 AM,33.8,32.0,93,30.25,10.0,Calm,Calm,-,N/A,,Clear,0,2013-01-20 09:35:00
3:55 AM,33.8,32.0,93,30.24,10.0,Calm,Calm,-,N/A,,Clear,0,2013-01-20 09:55:00
4:15 AM,33.8,30.2,87,30.24,10.0,South,3.5,-,N/A,,Clear,170,2013-01-20 10:15:00
4:35 AM,33.8,32.0,93,30.25,10.0,Calm,Calm,-,N/A,,Clear,0,2013-01-20 10:35:00
4:55 AM,33.8,33.8,100,30.25,10.0,Calm,Calm,-,N/A,,Clear,0,2013-01-20 10:55:00
5:15 AM,32.0,30.2,93,30.25,10.0,Calm,Calm,-,N/A,,Clear,0,2013-01-20 11:15:00
5:35 AM,33.8,30.2,87,30.25,10.0,SSE,3.5,-,N/A,,Clear,160,2013-01-20 11:35:00
5:55 AM,30.2,30.2,100,30.25,10.0,Calm,Calm,-,N/A,,Clear,0,2013-01-20 11:55:00
6:15 AM,33.8,32.0,93,30.25,10.0,Calm,Calm,-,N/A,,Clear,0,2013-01-20 12:15:00
6:35 AM,30.2,28.4,93,30.25,10.0,Calm,Calm,-,N/A,,Clear,0,2013-01-20 12:35:00
6:55 AM,32.0,30.2,93,30.25,10.0,Calm,Calm,-,N/A,,Clear,0,2013-01-20 12:55:00
7:15 AM,30.2,30.2,100,30.25,9.0,Calm,Calm,-,N/A,,Clear,0,2013-01-20 13:15:00
7:35 AM,32.0,30.2,93,30.26,10.0,Calm,Calm,-,N/A,,Clear,0,2013-01-20 13:35:00
7:55 AM,33.8,32.0,93,30.26,10.0,Calm,Calm,-,N/A,,Clear,0,2013-01-20 13:55:00
8:15 AM,35.6,35.6,100,30.26,10.0,Calm,Calm,-,N/A,,Clear,0,2013-01-20 14:15:00
8:35 AM,41.0,39.2,93,30.27,10.0,Calm,Calm,-,N/A,,Clear,0,2013-01-20 14:35:00
8:55 AM,44.6,42.8,93,30.27,10.0,Calm,Calm,-,N/A,,Clear,0,2013-01-20 14:55:00
9:15 AM,48.2,42.8,82,30.28,10.0,Calm,Calm,-,N/A,,Clear,0,2013-01-20 15:15:00
9:35 AM,50.0,44.6,82,30.28,10.0,Calm,Calm,-,N/A,,Clear,0,2013-01-20 15:35:00
9:55 AM,53.6,46.4,77,30.28,10.0,NNW,3.5,-,N/A,,Clear,340,2013-01-20 15:55:00
10:15 AM,53.6,46.4,77,30.28,10.0,North,4.6,-,N/A,,Clear,360,2013-01-20 16:15:00
10:35 AM,55.4,44.6,67,30.28,10.0,NE,4.6,-,N/A,,Clear,50,2013-01-20 16:35:00
10:55 AM,57.2,42.8,59,30.28,10.0,Calm,Calm,-,N/A,,Clear,0,2013-01-20 16:55:00
11:15 AM,57.2,39.2,51,30.27,10.0,Calm,Calm,-,N/A,,Clear,0,2013-01-20 17:15:00
11:35 AM,59.0,39.2,48,30.26,10.0,NNE,4.6,-,N/A,,Clear,30,2013-01-20 17:35:00
11:55 AM,60.8,39.2,45,30.25,10.0,Calm,Calm,-,N/A,,Clear,0,2013-01-20 17:55:00
12:15 PM,60.8,39.2,45,30.23,10.0,SE,3.5,-,N/A,,Clear,140,2013-01-20 18:15:00
12:35 PM,60.8,37.4,42,30.21,10.0,NW,3.5,-,N/A,,Clear,310,2013-01-20 18:35:00
12:55 PM,60.8,39.2,45,30.20,10.0,Calm,Calm,-,N/A,,Clear,0,2013-01-20 18:55:00
1:15 PM,62.6,37.4,39,30.19,10.0,West,5.8,-,N/A,,Clear,280,2013-01-20 19:15:00
1:35 PM,62.6,37.4,39,30.18,10.0,SSW,3.5,-,N/A,,Clear,200,2013-01-20 19:35:00
1:55 PM,62.6,37.4,39,30.17,10.0,West,3.5,-,N/A,,Clear,260,2013-01-20 19:55:00
2:15 PM,62.6,37.4,39,30.16,10.0,ENE,5.8,-,N/A,,Clear,70,2013-01-20 20:15:00
2:35 PM,64.4,37.4,37,30.16,10.0,Calm,Calm,-,N/A,,Clear,0,2013-01-20 20:35:00
2:55 PM,64.4,39.2,40,30.15,10.0,NW,8.1,-,N/A,,Clear,320,2013-01-20 20:55:00
3:15 PM,62.6,39.2,42,30.15,10.0,NNW,5.8,-,N/A,,Clear,340,2013-01-20 21:15:00
3:35 PM,62.6,39.2,42,30.15,10.0,NW,4.6,-,N/A,,Clear,310,2013-01-20 21:35:00
3:55 PM,62.6,39.2,42,30.15,10.0,NNW,6.9,-,N/A,,Clear,330,2013-01-20 21:55:00
4:15 PM,62.6,39.2,42,30.15,10.0,NNW,4.6,-,N/A,,Clear,340,2013-01-20 22:15:00
4:35 PM,62.6,39.2,42,30.15,10.0,NW,6.9,-,N/A,,Clear,310,2013-01-20 22:35:00
4:55 PM,60.8,39.2,45,30.15,10.0,NNW,5.8,-,N/A,,Clear,340,2013-01-20 22:55:00
5:15 PM,59.0,37.4,45,30.15,10.0,NNW,4.6,-,N/A,,Clear,340,2013-01-20 23:15:00
5:35 PM,57.2,37.4,48,30.15,10.0,North,4.6,-,N/A,,Clear,350,2013-01-20 23:35:00
5:56 PM,55.4,37.4,51,30.15,10.0,NNW,3.5,-,N/A,,Clear,330,2013-01-20 23:56:00
6:15 PM,53.6,37.4,54,30.16,10.0,Calm,Calm,-,N/A,,Clear,0,2013-01-21 00:15:00
6:35 PM,51.8,37.4,58,30.16,10.0,Calm,Calm,-,N/A,,Clear,0,2013-01-21 00:35:00
6:55 PM,51.8,37.4,58,30.16,10.0,Calm,Calm,-,N/A,,Clear,0,2013-01-21 00:55:00
7:15 PM,48.2,37.4,66,30.17,10.0,Calm,Calm,-,N/A,,Clear,0,2013-01-21 01:15:00
7:35 PM,48.2,37.4,66,30.17,10.0,Calm,Calm,-,N/A,,Clear,0,2013-01-21 01:35:00
7:55 PM,46.4,39.2,76,30.17,10.0,Calm,Calm,-,N/A,,Clear,0,2013-01-21 01:55:00
8:35 PM,44.6,39.2,81,30.17,10.0,Calm,Calm,-,N/A,,Clear,0,2013-01-21 02:35:00
8:55 PM,42.8,37.4,81,30.18,10.0,Calm,Calm,-,N/A,,Clear,0,2013-01-21 02:55:00
9:15 PM,42.8,39.2,87,30.18,10.0,Calm,Calm,-,N/A,,Clear,0,2013-01-21 03:15:00
9:35 PM,42.8,37.4,81,30.18,10.0,Calm,Calm,-,N/A,,Clear,0,2013-01-21 03:35:00
9:55 PM,41.0,37.4,87,30.18,10.0,Calm,Calm,-,N/A,,Clear,0,2013-01-21 03:55:00
10:15 PM,41.0,37.4,87,30.18,10.0,Calm,Calm,-,N/A,,Clear,0,2013-01-21 04:15:00
10:35 PM,41.0,37.4,87,30.18,10.0,Calm,Calm,-,N/A,,Clear,0,2013-01-21 04:35:00
10:55 PM,41.0,37.4,87,30.17,10.0,Calm,Calm,-,N/A,,Clear,0,2013-01-21 04:55:00
11:15 PM,39.2,37.4,93,30.17,10.0,Calm,Calm,-,N/A,,Clear,0,2013-01-21 05:15:00
11:35 PM,39.2,37.4,93,30.16,10.0,Calm,Calm,-,N/A,,Clear,0,2013-01-21 05:35:00
11:55 PM,39.2,35.6,87,30.16,10.0,Calm,Calm,-,N/A,,Clear,0,2013-01-21 05:55:00